[[{"header":{"parameterUnit":"m.s-1","parameterCategory":1,"la1":30.2991,"la2":30.254,"lo1":-89.0895,"lo2":-89.0444,"dy":0.0017,"dx":0.0017,"nx":28,"ny":28,"refTime":"2024-12-06T03:00:00:Z","depth":0,"parameterNumber":2,"parameterNumberName":"U-component_of_WINDS"},"data":[0,0,0,0,0,0,0,0,0,0,0,0,0,0,0,0,0,0,0,0,0,0,0,0,0,0,0,0,0,0,0,0,0,0,0,0,0,0,0,0,0,0,0,0,0,0,0,0,0,0,0,0,0,0,0,0,0,0,-2.2592,-2.2593,0,-2.2638,-2.2639,-2.264,-2.2564,-2.2561,-2.2558,-2.2556,-2.2605,-2.2608,-2.2612,0,0,0,0,0,0,0,0,0,0,0,0,0,-2.2439,-2.2442,-2.2592,-2.2593,-2.2593,-2.2638,-2.2639,-2.264,-2.2564,-2.2561,-2.2558,-2.2555,-2.2603,-2.2608,-2.2612,0,0,0,0,0,0,0,0,0,0,0,0,0,-2.2497,-2.2443,-2.2592,-2.2561,-2.2559,-2.2638,-2.2639,-2.264,-2.2565,-2.2561,-2.2557,-2.2553,-2.2602,-2.2607,-2.2613,-2.2725,0,0,-2.263,-2.2632,0,0,0,0,0,0,0,0,-2.2494,-2.2503,-2.2565,-2.2563,-2.2561,-2.2591,-2.2603,-2.2669,-2.2566,-2.2563,-2.2556,-2.2551,-2.2603,-2.2609,-2.2626,-2.2728,-2.273,-2.263,-2.2634,-2.2636,-2.2638,0,0,0,0,0,0,0,-2.249,-2.2501,-2.2611,-2.2566,-2.2564,-2.2545,-2.2549,-2.2615,-2.2604,-2.2562,-2.2557,-2.2563,-2.2602,-2.2621,-2.2627,-2.2731,-2.263,-2.2635,-2.2639,-2.2641,-2.2926,-2.293,0,0,0,0,0,0,-2.249,-2.2498,-2.2609,-2.2612,-2.2517,-2.2551,-2.2555,-2.2585,-2.2603,-2.2602,-2.2567,-2.256,-2.2613,-2.262,-2.2628,-2.2761,-2.2636,-2.2641,-2.2645,-2.2922,-2.2927,-2.2931,0,0,0,0,0,0,-2.2487,-2.25,-2.2607,-2.2553,-2.2565,-2.2558,-2.2592,-2.2588,-2.2608,-2.2607,-2.2604,-2.2588,-2.261,-2.262,-2.2701,-2.2761,-2.2644,-2.2649,-2.2917,-2.2923,-2.2929,-2.3028,0,0,0,0,0,0,-2.2483,-2.25,-2.2543,-2.2555,-2.2569,-2.268,-2.2596,-2.2592,-2.2617,-2.2608,-2.2626,-2.2626,-2.2608,-2.2694,-2.2707,-2.2767,-2.2653,-2.2911,-2.292,-2.2927,-2.3019,-2.3037,-2.3052,0,0,0,0,0,-2.2477,-2.2569,-2.2545,-2.2559,-2.2622,-2.2684,-2.2692,-2.267,-2.2622,-2.2665,-2.2664,-2.2625,-2.2752,-2.2703,-2.2717,-2.278,-2.2908,-2.2917,-2.2927,-2.3012,-2.3033,-2.3051,0,0,0,0,0,0,-2.2565,-2.257,-2.2544,-2.2642,-2.2663,-2.2671,-2.2725,-2.2693,-2.2728,-2.2719,-2.269,-2.2694,-2.2782,-2.2788,-2.2733,-2.2889,-2.2822,-2.2835,-2.2882,-2.2902,-2.2918,-2.2915,-2.2658,0,0,0,0,0,-2.2596,-2.2645,-2.2647,-2.2734,-2.2745,-2.2733,-2.276,-2.274,-2.2761,-2.277,-2.2775,-2.2797,-2.2841,-2.2872,-2.2913,-2.3019,-2.3022,-2.3069,-2.3085,-2.3098,-2.3111,-2.3167,-2.3188,-2.2963,-2.2963,-2.2962,0,0,-2.266,-2.2669,-2.2702,-2.2751,-2.2765,-2.2818,-2.2742,-2.28,-2.2839,-2.2779,-2.2856,-2.286,-2.2883,-2.2977,-2.3018,-2.2985,-2.3173,-2.3111,-2.3121,-2.3126,-2.3179,-2.32,-2.3219,-2.2969,-2.2968,-2.2967,0,0,-2.2804,-2.2815,-2.2888,-2.2903,-2.2925,-2.2916,-2.2934,-2.2946,-2.2947,-2.3023,-2.2979,-2.3024,-2.3102,-2.312,-2.3139,-2.3288,-2.3253,-2.3302,-2.3387,-2.3442,-2.346,-2.3476,-2.3529,-2.3549,-2.3313,-2.3313,-2.3314,0,-2.2881,-2.2958,-2.293,-2.2992,-2.3015,-2.2961,-2.3035,-2.3051,-2.3086,-2.3103,-2.3065,-2.316,-2.3172,-2.3269,-2.3305,-2.3322,-2.3341,-2.3301,-2.346,-2.3475,-2.3489,-2.354,-2.356,-2.3319,-2.3319,-2.3318,-2.3317,0,-2.3052,-2.3106,-2.3162,-2.3196,-2.3225,-2.3293,-2.3275,-2.3308,-2.3285,-2.328,-2.3359,-2.337,-2.3412,-2.3433,-2.3412,-2.3528,-2.3506,-2.3464,-2.3397,-2.3517,-2.3564,-2.3583,-2.3328,-2.3326,-2.3324,-2.3322,0,0,-2.3255,-2.3271,-2.3292,-2.3307,-2.3326,-2.3367,-2.3431,-2.3472,-2.3501,-2.3525,-2.3579,-2.3645,-2.3606,-2.3628,-2.3608,-2.3656,-2.3773,-2.3608,-2.3608,-2.3639,-2.3901,-2.3933,-2.3956,-2.3749,-2.3752,-2.3755,-2.3899,0,-2.3398,-2.351,-2.3486,-2.3595,-2.3645,-2.3594,-2.365,-2.3667,-2.3664,-2.3705,-2.3701,-2.3749,-2.3693,-2.3706,-2.3751,-2.3749,-2.3825,-2.3738,-2.3799,-2.3802,-2.3797,-2.3981,-2.4015,-2.4151,-2.3917,-2.392,-2.3923,0,-2.3582,-2.3613,-2.3727,-2.3737,-2.3757,-2.3808,-2.3843,-2.3882,-2.3901,-2.3895,-2.3919,-2.3889,-2.3952,-2.3883,-2.397,-2.3911,-2.3934,-2.3937,-2.3942,-2.3948,-2.3871,-2.3993,-2.4193,-2.4214,-2.3951,-2.3949,-2.3947,0,-2.3719,-2.3789,-2.3866,-2.388,-2.3894,-2.3931,-2.3938,-2.3953,-2.3978,-2.4008,-2.4025,-2.4062,-2.4083,-2.4112,-2.4093,-2.4044,-2.4184,-2.4113,-2.4181,-2.4182,-2.4215,-2.4213,-2.4423,-2.4228,-2.4227,-2.4227,-2.4226,0,-2.3883,-2.3955,-2.3928,-2.3976,-2.4055,-2.4026,-2.4105,-2.4107,-2.412,-2.4167,-2.4124,-2.4169,-2.4141,-2.4184,-2.4169,-2.4244,-2.4253,-2.425,-2.4246,-2.4255,-2.4256,-2.4271,-2.4262,-2.4232,-2.4231,-2.423,-2.4229,0,-2.4051,-2.4036,-2.4117,-2.4122,-2.4125,-2.4184,-2.4188,-2.4232,-2.4225,-2.4285,-2.4297,-2.4286,-2.4333,-2.4316,-2.4368,-2.4358,-2.4453,-2.4436,-2.4447,-2.4443,-2.4513,-2.4507,-2.4742,-2.4771,-2.4555,-2.4557,-2.4559,0,-2.4158,-2.4212,-2.4223,-2.4251,-2.4261,-2.4307,-2.4332,-2.4305,-2.4334,-2.4358,-2.44,-2.4443,-2.4477,-2.4556,-2.4552,-2.4591,-2.4574,-2.4654,-2.458,-2.4587,-2.4577,-2.4574,-2.458,-2.4669,-2.4672,-2.4674,-2.4675,0,-2.4348,-2.4338,-2.4376,-2.4412,-2.4443,-2.447,-2.4493,-2.4518,-2.4492,-2.4526,-2.4574,-2.46,-2.4652,-2.4696,-2.473,-2.4737,-2.4703,-2.4698,-2.4716,-2.4727,-2.4732,-2.4731,-2.4489,-2.4693,-2.4692,-2.469,-2.4689,-2.4689,-2.449,-2.4535,-2.455,-2.4593,-2.4607,-2.463,-2.4671,-2.4668,-2.4708,-2.4747,-2.4728,-2.4784,-2.48,-2.4842,-2.4854,-2.4897,-2.4866,-2.4892,-2.4899,-2.4907,-2.4916,-2.4723,-2.4903,-2.4902,-2.4902,-2.4901,-2.4901,0,-2.4679,-2.4685,-2.4726,-2.4759,-2.4793,-2.4755,-2.4778,-2.481,-2.4859,-2.4876,-2.491,-2.4965,-2.5007,-2.5005,-2.5044,-2.5079,-2.5064,-2.509,-2.5088,-2.509,-2.4941,-2.4922,-2.5101,-2.5101,-2.5101,-2.5101,-2.5101,-2.5101,-2.4782,-2.4857,-2.4848,-2.4929,-2.4934,-2.4988,-2.5005,-2.5024,-2.5038,-2.5101,-2.5135,-2.5134,-2.5143,-2.5182,-2.5219,-2.5217,-2.5234,-2.5267,-2.5259,-2.512,-2.5101,-2.5082,-2.5064,-2.527,-2.527,-2.5405,-2.5406,-2.5407]},{"header":{"parameterUnit":"m.s-1","parameterCategory":1,"la1":30.2991,"la2":30.254,"lo1":-89.0895,"lo2":-89.0444,"dy":0.0017,"dx":0.0017,"nx":28,"ny":28,"refTime":"2024-12-06T03:00:00:Z","depth":0,"parameterNumber":3,"parameterNumberName":"V-component_of_WINDS"},"data":[0,0,0,0,0,0,0,0,0,0,0,0,0,0,0,0,0,0,0,0,0,0,0,0,0,0,0,0,0,0,0,0,0,0,0,0,0,0,0,0,0,0,0,0,0,0,0,0,0,0,0,0,0,0,0,0,0,0,-7.5182,-7.5184,0,-7.5285,-7.5286,-7.5288,-7.5188,-7.5184,-7.518,-7.5176,-7.5275,-7.5281,-7.5287,0,0,0,0,0,0,0,0,0,0,0,0,0,-7.4892,-7.4898,-7.5182,-7.5184,-7.5185,-7.5285,-7.5286,-7.5288,-7.5188,-7.5183,-7.5179,-7.5174,-7.5273,-7.528,-7.5288,0,0,0,0,0,0,0,0,0,0,0,0,0,-7.5009,-7.49,-7.5182,-7.5147,-7.5145,-7.5285,-7.5287,-7.5288,-7.5189,-7.5183,-7.5177,-7.5172,-7.527,-7.528,-7.5289,-7.5466,0,0,-7.5318,-7.5322,0,0,0,0,0,0,0,0,-7.5003,-7.502,-7.5151,-7.515,-7.5148,-7.5218,-7.522,-7.5348,-7.5191,-7.5172,-7.5176,-7.5169,-7.526,-7.527,-7.5302,-7.547,-7.5475,-7.5319,-7.5324,-7.5328,-7.5331,0,0,0,0,0,0,0,-7.4995,-7.5015,-7.5223,-7.5153,-7.5151,-7.5124,-7.5134,-7.5244,-7.5248,-7.5174,-7.5167,-7.518,-7.5258,-7.5293,-7.5304,-7.5476,-7.5318,-7.5327,-7.5333,-7.5336,-7.5793,-7.5799,0,0,0,0,0,0,-7.4991,-7.5009,-7.5219,-7.5226,-7.5059,-7.5134,-7.5146,-7.5201,-7.5247,-7.5248,-7.5185,-7.5175,-7.528,-7.5293,-7.5307,-7.5516,-7.5328,-7.5337,-7.5343,-7.5786,-7.5794,-7.5801,0,0,0,0,0,0,-7.4985,-7.5011,-7.5215,-7.5116,-7.514,-7.5146,-7.5209,-7.5206,-7.5241,-7.5256,-7.5255,-7.5221,-7.5276,-7.5294,-7.5427,-7.5518,-7.5342,-7.535,-7.5779,-7.5789,-7.5798,-7.5937,0,0,0,0,0,0,-7.4978,-7.501,-7.5079,-7.5118,-7.5145,-7.5337,-7.5215,-7.5213,-7.5259,-7.5247,-7.5289,-7.529,-7.5273,-7.5414,-7.5437,-7.5528,-7.5358,-7.577,-7.5783,-7.5794,-7.5924,-7.595,-7.5972,0,0,0,0,0,-7.4968,-7.5113,-7.5083,-7.5109,-7.5232,-7.5342,-7.5357,-7.5336,-7.5267,-7.5335,-7.5344,-7.5289,-7.5505,-7.5428,-7.5453,-7.5549,-7.5765,-7.578,-7.5794,-7.5913,-7.5945,-7.5971,0,0,0,0,0,0,-7.5082,-7.5117,-7.5084,-7.5247,-7.5293,-7.5325,-7.541,-7.537,-7.5435,-7.5421,-7.5389,-7.5399,-7.5541,-7.5558,-7.5472,-7.5721,-7.5623,-7.5643,-7.5705,-7.5735,-7.5759,-7.5752,-7.5365,0,0,0,0,0,-7.5126,-7.5215,-7.524,-7.5381,-7.5406,-7.5405,-7.5452,-7.5431,-7.5476,-7.5494,-7.5513,-7.5557,-7.5634,-7.5686,-7.5758,-7.5926,-7.5932,-7.6004,-7.6028,-7.6047,-7.6065,-7.6154,-7.6185,-7.5849,-7.5848,-7.5848,0,0,-7.5218,-7.5248,-7.5306,-7.5405,-7.5437,-7.5528,-7.5421,-7.5521,-7.5587,-7.5509,-7.5636,-7.5652,-7.5698,-7.585,-7.5917,-7.5868,-7.616,-7.6066,-7.6082,-7.6088,-7.6172,-7.6204,-7.6232,-7.5858,-7.5857,-7.5855,0,0,-7.5432,-7.5465,-7.5585,-7.5621,-7.5673,-7.5671,-7.57,-7.5739,-7.5746,-7.5875,-7.5817,-7.5894,-7.6028,-7.6064,-7.6099,-7.6326,-7.6277,-7.635,-7.6475,-7.6562,-7.6589,-7.6612,-7.6692,-7.6721,-7.6367,-7.6368,-7.6368,0,-7.5539,-7.5675,-7.5652,-7.5757,-7.58,-7.5736,-7.5856,-7.5891,-7.5963,-7.5994,-7.5938,-7.6105,-7.6132,-7.629,-7.6346,-7.6377,-7.6407,-7.6345,-7.6587,-7.661,-7.6632,-7.6707,-7.6738,-7.6376,-7.6375,-7.6374,-7.6374,0,-7.5804,-7.5899,-7.599,-7.6063,-7.6117,-7.6229,-7.622,-7.6278,-7.6252,-7.6256,-7.6386,-7.6416,-7.6492,-7.6528,-7.6504,-7.6683,-7.6651,-7.6592,-7.6492,-7.6673,-7.6743,-7.6772,-7.6388,-7.6385,-7.6383,-7.6381,0,0,-7.6093,-7.6152,-7.6186,-7.6218,-7.627,-7.6341,-7.6449,-7.6526,-7.6575,-7.6627,-7.6715,-7.683,-7.6776,-7.6817,-7.6795,-7.6872,-7.7048,-7.6803,-7.6803,-7.6847,-7.7245,-7.7289,-7.7323,-7.7016,-7.7022,-7.7026,-7.7241,0,-7.6307,-7.6498,-7.6479,-7.6659,-7.6745,-7.6684,-7.6778,-7.6819,-7.6825,-7.6897,-7.6902,-7.6984,-7.6907,-7.693,-7.7003,-7.7011,-7.7127,-7.6995,-7.7096,-7.71,-7.7086,-7.736,-7.7407,-7.7608,-7.7268,-7.7273,-7.7276,0,-7.6584,-7.6647,-7.6836,-7.6875,-7.691,-7.6995,-7.7063,-7.7134,-7.7178,-7.7176,-7.7222,-7.7187,-7.7293,-7.7192,-7.7336,-7.7247,-7.7287,-7.7297,-7.7304,-7.7312,-7.7199,-7.7374,-7.7672,-7.7702,-7.732,-7.7316,-7.7313,0,-7.6774,-7.6906,-7.7036,-7.7066,-7.7114,-7.7175,-7.7197,-7.7236,-7.7283,-7.7342,-7.7372,-7.7442,-7.748,-7.7533,-7.7517,-7.7446,-7.7665,-7.7563,-7.7665,-7.7666,-7.7713,-7.7711,-7.8021,-7.7741,-7.774,-7.774,-7.7739,0,-7.7016,-7.7133,-7.7123,-7.7203,-7.7332,-7.7308,-7.7436,-7.745,-7.7485,-7.7565,-7.7516,-7.7591,-7.7566,-7.7639,-7.7627,-7.7748,-7.7765,-7.7766,-7.7761,-7.777,-7.777,-7.7795,-7.778,-7.7748,-7.7746,-7.7744,-7.7743,0,-7.725,-7.7248,-7.7386,-7.7421,-7.7432,-7.7526,-7.7554,-7.7628,-7.763,-7.7731,-7.7753,-7.7756,-7.7839,-7.7829,-7.7922,-7.7914,-7.8063,-7.8042,-7.8049,-7.8044,-7.8147,-7.8137,-7.8484,-7.8527,-7.822,-7.8223,-7.8225,0,-7.7404,-7.7494,-7.7539,-7.759,-7.7617,-7.77,-7.7748,-7.7727,-7.7779,-7.7836,-7.7902,-7.7982,-7.8045,-7.8181,-7.8189,-7.826,-7.8239,-7.8356,-7.8249,-7.8255,-7.8239,-7.8234,-7.8242,-7.8376,-7.838,-7.8383,-7.8385,0,-7.7677,-7.7672,-7.7745,-7.7818,-7.7877,-7.7933,-7.7983,-7.8026,-7.801,-7.8071,-7.8157,-7.8206,-7.8301,-7.838,-7.8447,-7.8466,-7.8423,-7.8419,-7.8446,-7.8456,-7.8456,-7.8456,-7.8106,-7.8411,-7.8408,-7.8406,-7.8405,-7.8404,-7.7876,-7.7952,-7.7996,-7.8078,-7.8114,-7.8162,-7.8233,-7.8245,-7.8317,-7.8394,-7.8377,-7.8474,-7.8514,-7.8599,-7.8626,-7.8699,-7.8656,-7.8696,-7.8706,-7.8716,-7.8728,-7.8445,-7.8711,-7.8711,-7.871,-7.8709,-7.8709,0,-7.8146,-7.8171,-7.8247,-7.832,-7.8384,-7.834,-7.8392,-7.8448,-7.8535,-7.8577,-7.864,-7.8738,-7.8814,-7.8829,-7.8901,-7.8957,-7.8939,-7.8977,-7.8972,-7.8977,-7.8763,-7.8732,-7.899,-7.899,-7.899,-7.899,-7.899,-7.899,-7.8294,-7.842,-7.842,-7.8563,-7.8586,-7.8683,-7.8716,-7.876,-7.8793,-7.8906,-7.897,-7.8979,-7.901,-7.9083,-7.9151,-7.9153,-7.9181,-7.9227,-7.9221,-7.902,-7.8992,-7.8965,-7.8936,-7.9233,-7.9234,-7.9429,-7.9431,-7.9432]}]]